Find Himawari

NORAD ID: 10143 Int'l Des: 1977-065 Owner: NASDA Country: J operational
HEOCIRCULAR

Live-Position

3D-Globus wird geladen...

Über Himawari

Beschreibung wird geladen...

Nächste Überflüge

Passes for default location (London). Set your location on the main map for personalized predictions.

Höhenverlauf

Loading altitude history...

Zweizeiliger Elementsatz

1 10143U 77065A 26134.08083529 .00000083 00000-0 00000+0 0 9995
2 10143 6.5978 292.7767 0015327 244.7389 321.3999 0.99247516120889
Epoch: 14. Mai 2026 • Age: 14 hours

Aktueller Status

Höhe 36140.0 km
Geschwindigkeit 3.06 km/s
Subsatellitenpunkt 5.82°N, 124.41°W
Startdatum 14. Juli 1977
Alter 48.8 years
Typ weather

Technische Details

Klassifizierung Payload
Masse 280.00 kg
Trockenmasse 258.00 kg
Gesamtmasse 664.00 kg
Länge 2.70 m
Durchmesser 2.20 m
Spannweite 2.70 m
Form Cyl
Hersteller HSES/NEC
Bus-Typ HS-335
Phasenstatus In Orbit
Besitzer/Staat NASDA/J

Most Searched